Flag for Italy Weather past 2 weeks in Modena, Italy

Now
81 °F

Passing clouds.


Feels Like: 82 °F
Forecast: 65 / 94 °F
Wind: 6 mph from West

Location: Bologna / Borgo Panigale

Current Time: Aug 30, 2015 at 10:34:14 AM

Latest Report: Aug 30, 2015 at 9:50 AM


Visibility: N/A

Pressure: 30.15 "Hg

Humidity: 54%

Dew point: 63 °F

Location of ModenaLocation

Historic Weather in Modena — Graph

°F

Modena temperature yesterday

Maximum temperature yesterday: 93 °F (at 3:20 PM)
Minimum temperature yesterday: 68 °F (at 6:50 AM)
Average temperature yesterday: 82 °F

Past Weeks' High & Low Weather Summary

 TemperatureHumidityPressure
High93 °F (Aug 28, 4:50 PM)100% (Aug 24, 4:50 AM)30.18 "Hg (Aug 24, 4:50 AM)
Low59 °F (Aug 23, 5:50 AM)28% (Aug 17, 7:50 PM)29.71 "Hg (Aug 15, 5:50 PM)
Average74 °F63%29.96 "Hg
* Reported Aug 15 9:20 AM — Aug 30 9:20 AM, Modena, Weather by CustomWeather, © 2015

Note: Actual official high and low records may vary slightly from our data, if they occured in-between our weather recording intervals... More about our weather records

Advertising

Modena weather history for previous 24 hours

 ConditionsComfort  
Time TempWeatherWind HumidityBarometerVisibility
9:20 AM
Sun, Aug 30
79 °FPassing clouds.5 mph61%30.15 "HgN/A
8:50 AM77 °FPassing clouds.6 mph61%30.15 "HgN/A
8:20 AM75 °FSunny.6 mph65%30.15 "Hg10 mi
7:50 AM72 °FSunny.6 mph73%30.15 "Hg10 mi
7:20 AM72 °FPassing clouds.7 mph69%30.15 "HgN/A
6:50 AM70 °FPassing clouds.6 mph73%30.15 "HgN/A
6:20 AM70 °FPassing clouds.6 mph73%30.12 "HgN/A
5:50 AM72 °FClear.6 mph69%30.12 "Hg10 mi
5:20 AM72 °FClear.6 mph73%30.12 "Hg10 mi
4:50 AM72 °FClear.7 mph73%30.12 "Hg10 mi
4:20 AM72 °FClear.8 mph73%30.12 "Hg10 mi
3:50 AM73 °FClear.7 mph69%30.12 "Hg10 mi
3:20 AM73 °FClear.8 mph69%30.12 "Hg10 mi
2:50 AM73 °FClear.8 mph69%30.12 "Hg10 mi
2:20 AM75 °FClear.8 mph65%30.12 "Hg10 mi
1:50 AM75 °FClear.9 mph65%30.15 "Hg10 mi
1:20 AM75 °FClear.7 mph65%30.15 "Hg10 mi
12:50 AM77 °FClear.7 mph61%30.15 "Hg10 mi
12:20 AM77 °FClear.7 mph61%30.15 "Hg10 mi
11:50 PM
Sat, Aug 29
77 °FClear.7 mph61%30.15 "Hg10 mi
10:50 PM79 °FClear.7 mph58%30.12 "Hg10 mi
10:20 PM81 °FClear.5 mph54%30.12 "Hg10 mi
9:50 PM81 °FClear.6 mph58%30.12 "Hg10 mi
9:20 PM81 °FClear.6 mph58%30.12 "Hg10 mi
8:50 PM82 °FSunny.8 mph55%30.09 "Hg10 mi
8:20 PM86 °FPassing clouds.5 mph46%30.09 "HgN/A
7:50 PM88 °FSunny.3 mph40%30.09 "Hg10 mi
7:20 PM91 °FSunny.3 mph34%30.09 "Hg10 mi
6:50 PM91 °FPassing clouds.5 mph34%30.09 "HgN/A
6:20 PM93 °FSunny.2 mph32%30.09 "Hg10 mi
5:50 PM93 °FSunny.2 mph30%30.09 "Hg10 mi
5:20 PM93 °FPassing clouds.6 mph30%30.09 "HgN/A
4:50 PM93 °FPassing clouds.6 mph32%30.09 "HgN/A
4:20 PM93 °FSunny.5 mph32%30.09 "Hg10 mi
3:50 PM93 °FSunny.2 mph32%30.09 "Hg10 mi
3:20 PM93 °FPassing clouds.5 mph34%30.12 "HgN/A
2:50 PM91 °FPassing clouds.6 mph36%30.12 "HgN/A
2:20 PM91 °FSunny.5 mph38%30.15 "Hg10 mi
1:50 PM90 °FSunny.5 mph38%30.15 "Hg10 mi
1:20 PM90 °FSunny.5 mph41%30.15 "Hg10 mi
12:50 PM88 °FPassing clouds.3 mph46%30.15 "HgN/A
11:50 AM86 °FSunny.5 mph49%30.18 "Hg10 mi
11:20 AM84 °FPassing clouds.5 mph48%30.18 "HgN/A
10:50 AM82 °FPassing clouds.5 mph51%30.18 "HgN/A
Weather by CustomWeather, © 2015

See weather overviewHow to use our weather pages